DateTimeUTC,F1_A11,F1_S11,BsB_S11,BsG_S11,BsR_S11,BbsB_S11,BbsG_S11,BbsR_S11,BaB_A11,BaG_A11,BaR_A11,Tu_S11,T_S11,Uu_S11,U_S11,P_S11,T1_A11
2021-05-05T13:00:00Z,00000200,21000000,,,,,,,0000.08,-000.24,-000.07,16.0,22.8,,00.0,0675.5,30.9
2021-05-05T13:01:00Z,00000200,21000000,,,,,,,-000.05,0000.33,0000.19,16.0,22.8,,00.0,0675.5,30.9
2021-05-05T13:02:00Z,00000200,21000000,,,,,,,-000.25,-000.18,-000.24,16.0,22.8,,00.0,0675.5,30.9
2021-05-05T13:03:00Z,00000200,61000000,,,,,,,0001.46,0000.92,0000.92,16.0,22.8,,00.0,0675.5,30.9
2021-05-05T13:04:00Z,00000200,41000000,0006.64,0004.31,0002.29,0000.74,0000.65,0000.42,0001.16,0001.12,0000.67,16.1,22.7,,00.0,0676.4,30.9
2021-05-05T13:05:00Z,00000200,01000000,0005.86,0004.53,0002.31,0000.41,0000.83,0000.51,0001.67,0001.48,0001.51,16.1,22.6,,00.0,0676.5,30.9
2021-05-05T13:06:00Z,00000200,01000000,0006.98,0004.29,0002.25,0000.86,0000.72,0000.49,0002.11,0001.53,0000.73,16.1,22.6,,00.0,0676.5,30.9
2021-05-05T13:07:00Z,00000200,01000000,0006.34,0004.74,0002.34,0000.65,0000.85,0000.48,0001.20,0001.03,0000.81,16.1,22.6,,00.0,0676.5,30.9
2021-05-05T13:08:00Z,00000200,01000000,0006.39,0004.39,0002.20,0000.69,0000.62,0000.45,0001.58,0001.53,0001.32,16.2,22.6,,00.0,0676.5,30.9
2021-05-05T13:09:00Z,00000200,01000000,0006.43,0004.63,0002.38,0000.54,0000.82,0000.41,0001.80,0001.61,0001.19,16.3,22.6,,00.0,0676.5,30.9
2021-05-05T13:10:00Z,00000200,01000000,0006.42,0004.29,0002.39,0000.24,0000.69,0000.72,0001.77,0001.58,0001.13,16.4,22.7,,00.0,0676.5,30.9
2021-05-05T13:11:00Z,00000200,01000000,0005.47,0004.31,0002.35,0000.73,0000.49,0000.20,0001.32,0001.51,0000.90,16.4,22.7,,00.0,0676.5,30.9
2021-05-05T13:12:00Z,00000200,01000000,0006.66,0004.44,0002.68,0000.84,0000.66,0000.36,0001.56,0001.01,0001.38,16.5,22.7,,00.0,0676.5,30.9
2021-05-05T13:13:00Z,00000200,01000000,0006.48,0004.65,0002.27,0000.89,0000.46,0000.34,0001.37,0001.54,0000.64,16.5,22.8,,00.0,0676.5,30.9
2021-05-05T13:14:00Z,00000200,01000000,0006.99,0004.81,0002.75,0001.56,0000.63,0000.51,0001.56,0001.45,0001.06,16.5,22.8,,00.0,0676.5,30.9
2021-05-05T13:15:00Z,00000200,01000000,0006.26,0004.81,0002.35,0000.87,0000.61,0000.71,0001.40,0001.44,0000.93,16.5,22.8,,00.0,0676.5,30.9
2021-05-05T13:16:00Z,00000200,01000000,0006.27,0004.87,0002.47,0000.79,0000.56,0000.53,0001.64,0001.42,0000.91,16.5,22.8,,00.0,0676.5,30.9
2021-05-05T13:17:00Z,00000200,01000000,0006.59,0004.91,0002.22,0000.95,0000.68,0000.41,0001.46,0000.72,0001.34,16.5,22.8,,00.0,0676.5,30.9
2021-05-05T13:18:00Z,00000200,01000000,0006.41,0004.90,0002.68,0000.96,0000.70,0000.92,0001.81,0002.41,0001.08,16.5,22.8,,00.0,0676.5,30.9
2021-05-05T13:19:00Z,00000200,01000000,0007.43,0004.42,0002.56,0000.86,0000.82,0000.52,0001.18,0000.75,0000.70,16.5,22.8,,00.0,0676.5,30.9
2021-05-05T13:20:00Z,00000200,01000000,0006.10,0004.55,0002.35,0001.09,0000.67,0000.35,0002.07,0001.53,0000.91,16.5,22.8,,00.0,0676.5,30.9
2021-05-05T13:21:00Z,00000200,01000000,0006.70,0004.60,0002.62,0000.50,0000.93,0000.63,0001.47,0001.63,0001.44,16.5,22.8,,00.0,0676.5,30.9
2021-05-05T13:22:00Z,00000200,01000000,0005.51,0004.54,0002.30,0000.96,0000.45,0000.30,0001.17,0000.83,0000.67,16.5,22.8,,00.0,0676.5,30.9
2021-05-05T13:23:00Z,00000200,01000000,0006.46,0004.87,0002.31,0000.74,0000.69,0000.63,0002.10,0001.61,0001.15,16.5,22.8,,00.0,0676.5,30.9
2021-05-05T13:24:00Z,00000200,01000000,0006.98,0004.19,0002.41,0000.91,0000.71,0000.65,0001.48,0001.83,0001.21,16.6,22.8,,00.0,0676.5,30.9
2021-05-05T13:25:00Z,00000200,01000000,0006.50,0004.39,0002.49,0000.85,0000.69,0000.44,0002.07,0001.33,0001.17,16.6,22.9,,00.0,0676.5,30.9
2021-05-05T13:26:00Z,00000200,01000000,0006.86,0004.74,0002.50,0001.00,0000.74,0000.63,0001.15,0001.62,0001.17,16.6,22.9,,00.0,0676.5,30.9
2021-05-05T13:27:00Z,00000200,01000000,0007.18,0004.61,0002.68,0001.10,0000.75,0000.85,0001.76,0001.20,0000.92,16.6,22.9,,00.0,0676.5,30.9
2021-05-05T13:28:00Z,00000200,01000000,0007.48,0005.02,0002.78,0000.77,0000.64,0000.68,0001.59,0001.58,0000.90,16.6,22.9,,00.0,0676.5,30.9
2021-05-05T13:29:00Z,00000200,01000000,0006.33,0004.96,0002.90,0001.05,0000.61,0000.41,0001.90,0001.78,0001.41,16.7,22.9,,00.0,0676.5,30.9
2021-05-05T13:30:00Z,00000200,01000000,0007.82,0005.26,0002.94,0001.19,0000.69,0000.65,0001.89,0001.57,0001.26,16.6,22.9,,00.0,0676.5,30.9
2021-05-05T13:31:00Z,00000200,01000000,0007.01,0005.22,0003.09,0000.69,0000.57,0000.77,0001.76,0001.65,0001.40,16.7,22.9,,00.0,0676.5,30.9
2021-05-05T13:32:00Z,00000200,01000000,0008.36,0005.01,0002.65,0001.14,0000.69,0000.47,0001.87,0001.76,0001.00,16.7,22.9,,00.0,0676.5,30.9
2021-05-05T13:33:00Z,00000200,01000000,0007.55,0005.07,0002.71,0000.98,0000.81,0000.69,0001.97,0001.76,0001.53,16.6,22.9,,00.0,0676.5,30.9
2021-05-05T13:34:00Z,00000200,01000000,0007.75,0005.08,0002.92,0000.49,0000.58,0000.78,0001.92,0001.82,0000.90,16.7,22.9,,00.0,0676.5,30.9
2021-05-05T13:35:00Z,00000200,01000000,0007.66,0005.32,0002.90,0000.66,0000.93,0000.66,0002.28,0001.24,0001.57,16.7,22.9,,00.0,0676.5,30.9
2021-05-05T13:36:00Z,00000200,01000000,0008.42,0005.76,0003.12,0000.96,0000.99,0000.64,0001.77,0002.05,0001.10,16.6,22.9,,00.0,0676.5,30.9
2021-05-05T13:37:00Z,00000200,01000000,0007.54,0005.68,0002.97,0000.12,0000.87,0000.91,0001.90,0001.63,0001.32,16.7,22.9,,00.0,0676.5,30.9
2021-05-05T13:38:00Z,00000200,01000000,0008.04,0005.55,0003.04,0001.57,0000.92,0000.71,0001.88,0001.73,0001.34,16.7,22.9,,00.0,0676.4,30.9
2021-05-05T13:39:00Z,00000200,01000000,0007.72,0005.21,0002.74,0001.27,0000.77,0000.69,0001.98,0001.58,0001.02,16.7,22.9,,00.0,0676.5,30.9
2021-05-05T13:40:00Z,00000200,01000000,0007.82,0005.36,0002.90,0000.95,0000.52,0000.54,0001.51,0002.00,0001.14,16.6,22.9,,00.0,0676.4,30.9
2021-05-05T13:41:00Z,00000200,01000000,0007.96,0005.33,0002.97,0000.84,0000.87,0000.64,0002.22,0001.81,0001.77,16.6,22.9,,00.0,0676.5,30.9
2021-05-05T13:42:00Z,00000200,01000000,0007.81,0005.56,0002.99,0000.68,0000.82,0000.71,0001.91,0001.60,0001.00,16.7,22.9,,00.0,0676.5,30.9
2021-05-05T13:43:00Z,00000200,01000000,0007.74,0005.38,0002.92,0001.07,0000.88,0000.87,0002.04,0001.47,0001.04,16.7,22.9,,00.0,0676.5,30.9
2021-05-05T13:44:00Z,00000200,01000000,0008.29,0005.74,0003.19,0000.85,0000.82,0000.72,0002.01,0001.98,0001.33,16.7,22.9,,00.0,0676.5,30.9
2021-05-05T13:45:00Z,00000200,01000000,0007.93,0005.71,0002.96,0001.51,0000.79,0000.74,0002.46,0002.09,0001.76,16.7,22.9,,00.0,0676.5,30.9
2021-05-05T13:46:00Z,00000200,01000000,0008.09,0005.53,0003.23,0000.79,0000.62,0000.67,0001.85,0001.90,0001.46,16.7,23.0,,00.0,0676.5,30.9
2021-05-05T13:47:00Z,00000200,01000000,0007.96,0005.54,0003.08,0000.89,0001.13,0000.71,0002.27,0002.30,0001.13,16.7,22.9,,00.0,0676.5,30.9
2021-05-05T13:48:00Z,00000200,01000000,0007.69,0005.69,0003.20,0000.67,0001.06,0000.75,0001.69,0001.60,0001.27,16.7,23.0,,00.0,0676.5,30.9
2021-05-05T13:49:00Z,00000200,01000000,0008.52,0005.81,0003.35,0001.70,0001.00,0000.76,0002.57,0001.60,0001.48,16.7,23.0,,00.0,0676.5,30.9
2021-05-05T13:50:00Z,00000200,01000000,0008.98,0005.47,0003.25,0001.15,0001.19,0000.72,0001.79,0002.14,0001.35,16.7,23.0,,00.0,0676.5,30.9
2021-05-05T13:51:00Z,00000200,01000000,0008.80,0005.98,0003.49,0000.75,0000.90,0000.65,0002.03,0001.55,0001.48,16.7,23.0,,00.0,0676.5,30.9
2021-05-05T13:52:00Z,00000200,01000000,0009.23,0005.90,0003.06,0000.76,0000.80,0000.85,0002.30,0002.07,0001.18,16.7,23.0,,00.0,0676.5,30.9
2021-05-05T13:53:00Z,00000200,01000000,0009.07,0005.80,0003.45,0001.29,0001.03,0000.79,0002.25,0002.12,0001.57,16.7,23.0,,00.0,0676.5,30.9
2021-05-05T13:54:00Z,00000200,01000000,0009.18,0006.09,0002.83,0000.83,0001.11,0000.68,0002.64,0002.09,0001.36,16.8,23.0,,00.0,0676.5,30.9
2021-05-05T13:55:00Z,00000200,01000000,0008.32,0005.85,0003.29,0001.01,0000.90,0000.65,0001.80,0002.02,0001.81,16.9,23.1,,00.0,0676.5,30.9
2021-05-05T13:56:00Z,00000200,01000000,0008.65,0006.16,0003.42,0000.71,0000.87,0000.72,0002.29,0002.13,0001.71,17.0,23.1,,00.0,0676.5,31.0
2021-05-05T13:57:00Z,00000200,41000000,,,,,,,0000.21,0000.32,-000.01,17.0,23.2,,00.0,0676.6,31.0
2021-05-05T13:58:00Z,00000200,61000000,,,,,,,-000.08,-000.57,0000.12,16.9,23.3,,00.0,0675.6,31.0
2021-05-05T13:59:00Z,00000200,21000000,,,,,,,-000.33,-000.30,-000.63,16.9,23.4,,00.0,0675.5,31.0
